Time,TemperatureF,DewpointF,PressureIn,WindDirection,WindDirectionDegrees,WindSpeedMPH,WindSpeedGustMPH,Humidity,HourlyPrecipIn,Conditions,Clouds,dailyrainin,SolarRadiationWatts/m^2,SoftwareType,DateUTC
2013-05-21 00:23:00,66.0,66.0,-100.00,South,170,2.0,9.0,100,0.00,,,0.00,1.000000,,2013-05-21 04:23:00,
2013-05-21 00:33:00,66.0,66.0,-100.00,South,170,2.0,9.0,100,0.00,,,0.00,1.000000,,2013-05-21 04:33:00,
2013-05-21 00:42:00,66.0,66.0,-100.00,South,170,2.0,9.0,100,0.00,,,0.00,1.000000,,2013-05-21 04:42:00,
2013-05-21 00:52:00,66.0,66.0,-100.00,South,170,2.0,9.0,100,0.00,,,0.00,1.000000,,2013-05-21 04:52:00,
2013-05-21 01:22:00,64.0,64.0,-100.00,SSE,149,0.0,6.0,100,0.00,,,0.00,1.000000,,2013-05-21 05:22:00,
2013-05-21 01:32:00,64.0,64.0,-100.00,SSE,149,0.0,6.0,100,0.00,,,0.00,1.000000,,2013-05-21 05:32:00,
2013-05-21 01:42:00,64.0,64.0,-100.00,SSE,149,0.0,6.0,100,0.00,,,0.00,1.000000,,2013-05-21 05:42:00,
2013-05-21 01:52:00,64.0,64.0,-100.00,SSE,149,0.0,6.0,100,0.00,,,0.00,1.000000,,2013-05-21 05:52:00,
2013-05-21 02:12:00,63.0,63.0,-100.00,East,79,0.0,2.0,100,0.00,,,0.00,1.000000,,2013-05-21 06:12:00,
2013-05-21 02:21:00,63.0,63.0,-100.00,East,79,0.0,2.0,100,0.00,,,0.00,1.000000,,2013-05-21 06:21:00,
2013-05-21 02:32:00,63.0,63.0,-100.00,East,79,0.0,2.0,100,0.00,,,0.00,1.000000,,2013-05-21 06:32:00,
2013-05-21 02:42:00,63.0,63.0,-100.00,East,79,0.0,2.0,100,0.00,,,0.00,1.000000,,2013-05-21 06:42:00,
2013-05-21 02:52:00,63.0,63.0,-100.00,East,79,0.0,2.0,100,0.00,,,0.00,1.000000,,2013-05-21 06:52:00,
2013-05-21 03:22:00,63.0,63.0,-100.00,East,92,3.0,4.0,100,0.00,,,0.00,1.000000,,2013-05-21 07:22:00,
2013-05-21 03:32:00,63.0,63.0,-100.00,East,92,3.0,4.0,100,0.00,,,0.00,1.000000,,2013-05-21 07:32:00,
2013-05-21 03:42:00,63.0,63.0,-100.00,East,92,3.0,4.0,100,0.00,,,0.00,1.000000,,2013-05-21 07:42:00,
2013-05-21 03:52:00,63.0,63.0,-100.00,East,92,3.0,4.0,100,0.00,,,0.00,1.000000,,2013-05-21 07:52:00,
2013-05-21 04:21:00,62.0,62.0,-100.00,East,82,5.0,7.0,100,0.00,,,0.00,1.000000,,2013-05-21 08:21:00,
2013-05-21 04:31:00,62.0,62.0,-100.00,East,82,5.0,7.0,100,0.00,,,0.00,1.000000,,2013-05-21 08:31:00,
2013-05-21 04:42:00,62.0,62.0,-100.00,East,82,5.0,7.0,100,0.00,,,0.00,1.000000,,2013-05-21 08:42:00,
2013-05-21 04:52:00,62.0,62.0,-100.00,East,82,5.0,7.0,100,0.00,,,0.00,1.000000,,2013-05-21 08:52:00,
2013-05-21 05:21:00,62.0,62.0,-100.00,ENE,72,3.0,6.0,100,0.00,,,0.00,1.000000,,2013-05-21 09:21:00,
2013-05-21 05:33:00,62.0,62.0,-100.00,ENE,72,3.0,6.0,100,0.00,,,0.00,1.000000,,2013-05-21 09:33:00,
2013-05-21 05:42:00,62.0,62.0,-100.00,ENE,72,3.0,6.0,100,0.00,,,0.00,1.000000,,2013-05-21 09:42:00,
2013-05-21 05:52:00,62.0,62.0,-100.00,ENE,72,3.0,6.0,100,0.00,,,0.00,1.000000,,2013-05-21 09:52:00,
2013-05-21 06:22:00,61.0,61.0,-100.00,East,81,2.0,4.0,100,0.00,,,0.00,2.000000,,2013-05-21 10:22:00,
2013-05-21 06:33:00,61.0,61.0,-100.00,East,81,2.0,4.0,100,0.00,,,0.00,2.000000,,2013-05-21 10:33:00,
2013-05-21 06:42:00,61.0,61.0,-100.00,East,81,2.0,4.0,100,0.00,,,0.00,2.000000,,2013-05-21 10:42:00,
2013-05-21 06:52:00,61.0,61.0,-100.00,East,81,2.0,4.0,100,0.00,,,0.00,2.000000,,2013-05-21 10:52:00,
2013-05-21 07:22:00,63.0,63.0,-100.00,ENE,70,0.0,5.0,100,0.00,,,0.00,51.000000,,2013-05-21 11:22:00,
2013-05-21 07:32:00,63.0,63.0,-100.00,ENE,70,0.0,5.0,100,0.00,,,0.00,51.000000,,2013-05-21 11:32:00,
2013-05-21 07:42:00,63.0,63.0,-100.00,ENE,70,0.0,5.0,100,0.00,,,0.00,51.000000,,2013-05-21 11:42:00,
2013-05-21 07:52:00,63.0,63.0,-100.00,ENE,70,0.0,5.0,100,0.00,,,0.00,51.000000,,2013-05-21 11:52:00,
2013-05-21 08:21:00,67.0,67.0,-100.00,ENE,60,2.0,4.0,100,0.00,,,0.00,213.000000,,2013-05-21 12:21:00,
2013-05-21 08:32:00,67.0,67.0,-100.00,ENE,60,2.0,4.0,100,0.00,,,0.00,213.000000,,2013-05-21 12:32:00,
2013-05-21 08:42:00,67.0,67.0,-100.00,ENE,60,2.0,4.0,100,0.00,,,0.00,213.000000,,2013-05-21 12:42:00,
2013-05-21 08:51:00,67.0,67.0,-100.00,ENE,60,2.0,4.0,100,0.00,,,0.00,213.000000,,2013-05-21 12:51:00,
2013-05-21 09:22:00,76.0,73.0,-100.00,WNW,295,2.0,5.0,91,0.00,,,0.00,389.000000,,2013-05-21 13:22:00,
2013-05-21 09:32:00,76.0,73.0,-100.00,WNW,295,2.0,5.0,91,0.00,,,0.00,389.000000,,2013-05-21 13:32:00,
2013-05-21 09:42:00,76.0,73.0,-100.00,WNW,295,2.0,5.0,91,0.00,,,0.00,389.000000,,2013-05-21 13:42:00,
2013-05-21 09:52:00,76.0,73.0,-100.00,WNW,295,2.0,5.0,91,0.00,,,0.00,389.000000,,2013-05-21 13:52:00,
2013-05-21 10:21:00,79.0,72.0,-100.00,WNW,284,3.0,8.0,80,0.00,,,0.00,534.000000,,2013-05-21 14:21:00,
2013-05-21 10:32:00,79.0,72.0,-100.00,WNW,284,3.0,8.0,80,0.00,,,0.00,534.000000,,2013-05-21 14:32:00,
2013-05-21 10:42:00,79.0,72.0,-100.00,WNW,284,3.0,8.0,80,0.00,,,0.00,534.000000,,2013-05-21 14:42:00,
2013-05-21 10:51:00,79.0,72.0,-100.00,WNW,284,3.0,8.0,80,0.00,,,0.00,534.000000,,2013-05-21 14:51:00,
2013-05-21 12:23:00,81.0,70.0,-100.00,WSW,255,3.0,7.0,69,-99.99,,,0.00,580.000000,,2013-05-21 16:23:00,
2013-05-21 12:32:00,81.0,70.0,-100.00,WSW,255,3.0,7.0,69,-99.99,,,0.00,580.000000,,2013-05-21 16:32:00,
2013-05-21 12:42:00,81.0,70.0,-100.00,WSW,255,3.0,7.0,69,-99.99,,,0.00,580.000000,,2013-05-21 16:42:00,
2013-05-21 12:52:00,81.0,70.0,-100.00,WSW,255,3.0,7.0,69,-99.99,,,0.00,580.000000,,2013-05-21 16:52:00,
2013-05-21 13:23:00,85.0,70.0,-100.00,SW,216,4.0,9.0,62,0.00,,,0.00,873.000000,,2013-05-21 17:23:00,
2013-05-21 13:33:00,85.0,70.0,-100.00,SW,216,4.0,9.0,62,0.00,,,0.00,873.000000,,2013-05-21 17:33:00,
2013-05-21 13:43:00,85.0,70.0,-100.00,SW,216,4.0,9.0,62,0.00,,,0.00,873.000000,,2013-05-21 17:43:00,
2013-05-21 13:52:00,85.0,70.0,-100.00,SW,216,4.0,9.0,62,0.00,,,0.00,873.000000,,2013-05-21 17:52:00,
2013-05-21 14:22:00,85.0,68.0,-100.00,WSW,255,4.0,10.0,56,0.00,,,0.00,791.000000,,2013-05-21 18:22:00,
2013-05-21 14:32:00,85.0,68.0,-100.00,WSW,255,4.0,10.0,56,0.00,,,0.00,791.000000,,2013-05-21 18:32:00,
2013-05-21 14:42:00,85.0,68.0,-100.00,WSW,255,4.0,10.0,56,0.00,,,0.00,791.000000,,2013-05-21 18:42:00,
2013-05-21 14:52:00,85.0,68.0,-100.00,WSW,255,4.0,10.0,56,0.00,,,0.00,791.000000,,2013-05-21 18:52:00,
2013-05-21 15:22:00,86.0,66.0,-100.00,West,265,4.0,12.0,52,0.00,,,0.00,872.000000,,2013-05-21 19:22:00,
2013-05-21 15:32:00,86.0,66.0,-100.00,West,265,4.0,12.0,52,0.00,,,0.00,872.000000,,2013-05-21 19:32:00,
2013-05-21 15:42:00,86.0,66.0,-100.00,West,265,4.0,12.0,52,0.00,,,0.00,872.000000,,2013-05-21 19:42:00,
2013-05-21 15:52:00,86.0,66.0,-100.00,West,265,4.0,12.0,52,0.00,,,0.00,872.000000,,2013-05-21 19:52:00,
2013-05-21 16:22:00,87.0,65.0,-100.00,SSE,152,5.0,12.0,49,0.00,,,0.00,750.000000,,2013-05-21 20:22:00,
2013-05-21 16:32:00,87.0,65.0,-100.00,SSE,152,5.0,12.0,49,0.00,,,0.00,750.000000,,2013-05-21 20:32:00,
2013-05-21 16:42:00,87.0,65.0,-100.00,SSE,152,5.0,12.0,49,0.00,,,0.00,750.000000,,2013-05-21 20:42:00,
2013-05-21 16:52:00,87.0,65.0,-100.00,SSE,152,5.0,12.0,49,0.00,,,0.00,750.000000,,2013-05-21 20:52:00,
2013-05-21 17:22:00,85.0,69.0,-100.00,South,184,4.0,11.0,58,0.00,,,0.00,379.000000,,2013-05-21 21:22:00,
2013-05-21 17:33:00,85.0,69.0,-100.00,South,184,4.0,11.0,58,0.00,,,0.00,379.000000,,2013-05-21 21:33:00,
2013-05-21 17:43:00,85.0,69.0,-100.00,South,184,4.0,11.0,58,0.00,,,0.00,379.000000,,2013-05-21 21:43:00,
2013-05-21 17:53:00,85.0,69.0,-100.00,South,184,4.0,11.0,58,0.00,,,0.00,379.000000,,2013-05-21 21:53:00,
2013-05-21 18:23:00,84.0,68.0,-100.00,SW,225,3.0,12.0,59,0.00,,,0.00,299.000000,,2013-05-21 22:23:00,
2013-05-21 18:33:00,84.0,68.0,-100.00,SW,225,3.0,12.0,59,0.00,,,0.00,299.000000,,2013-05-21 22:33:00,
2013-05-21 18:42:00,84.0,68.0,-100.00,SW,225,3.0,12.0,59,0.00,,,0.00,299.000000,,2013-05-21 22:42:00,
2013-05-21 18:52:00,84.0,68.0,-100.00,SW,225,3.0,12.0,59,0.00,,,0.00,299.000000,,2013-05-21 22:52:00,
2013-05-21 19:22:00,82.0,68.0,-100.00,SSW,201,4.0,12.0,62,0.00,,,0.00,157.000000,,2013-05-21 23:22:00,
2013-05-21 19:32:00,82.0,68.0,-100.00,SSW,201,4.0,12.0,62,0.00,,,0.00,157.000000,,2013-05-21 23:32:00,
2013-05-21 19:42:00,82.0,68.0,-100.00,SSW,201,4.0,12.0,62,0.00,,,0.00,157.000000,,2013-05-21 23:42:00,
2013-05-21 19:52:00,82.0,68.0,-100.00,SSW,201,4.0,12.0,62,0.00,,,0.00,157.000000,,2013-05-21 23:52:00,
2013-05-21 20:21:00,80.0,68.0,-100.00,SE,125,4.0,8.0,67,0.00,,,0.00,67.000000,,2013-05-22 00:21:00,
2013-05-21 20:32:00,80.0,68.0,-100.00,SE,125,4.0,8.0,67,0.00,,,0.00,67.000000,,2013-05-22 00:32:00,
2013-05-21 20:42:00,80.0,68.0,-100.00,SE,125,4.0,8.0,67,0.00,,,0.00,67.000000,,2013-05-22 00:42:00,
2013-05-21 20:51:00,80.0,68.0,-100.00,SE,125,4.0,8.0,67,0.00,,,0.00,67.000000,,2013-05-22 00:51:00,
2013-05-21 21:22:00,76.0,71.0,-100.00,South,173,2.0,10.0,85,0.00,,,0.00,6.000000,,2013-05-22 01:22:00,
2013-05-21 21:32:00,76.0,71.0,-100.00,South,173,2.0,10.0,85,0.00,,,0.00,6.000000,,2013-05-22 01:32:00,
2013-05-21 21:42:00,76.0,71.0,-100.00,South,173,2.0,10.0,85,0.00,,,0.00,6.000000,,2013-05-22 01:42:00,
2013-05-21 21:52:00,76.0,71.0,-100.00,South,173,2.0,10.0,85,0.00,,,0.00,6.000000,,2013-05-22 01:52:00,
2013-05-21 22:22:00,75.0,73.0,-100.00,ESE,114,4.0,7.0,93,0.00,,,0.00,1.000000,,2013-05-22 02:22:00,
2013-05-21 22:32:00,75.0,73.0,-100.00,ESE,114,4.0,7.0,93,0.00,,,0.00,1.000000,,2013-05-22 02:32:00,
2013-05-21 22:42:00,75.0,73.0,-100.00,ESE,114,4.0,7.0,93,0.00,,,0.00,1.000000,,2013-05-22 02:42:00,
2013-05-21 22:52:00,75.0,73.0,-100.00,ESE,114,4.0,7.0,93,0.00,,,0.00,1.000000,,2013-05-22 02:52:00,
2013-05-21 23:22:00,74.0,73.0,-100.00,SSW,209,4.0,11.0,97,0.00,,,0.00,1.000000,,2013-05-22 03:22:00,
2013-05-21 23:33:00,74.0,73.0,-100.00,SSW,209,4.0,11.0,97,0.00,,,0.00,1.000000,,2013-05-22 03:33:00,
2013-05-21 23:43:00,74.0,73.0,-100.00,SSW,209,4.0,11.0,97,0.00,,,0.00,1.000000,,2013-05-22 03:43:00,
2013-05-21 23:53:00,74.0,73.0,-100.00,SSW,209,4.0,11.0,97,0.00,,,0.00,1.000000,,2013-05-22 03:53:00,